Weather in Krugloye

Russia / Kurgan Oblast     54°30′01″N   64°53′46″E
temp.,
°C
wind,
m/s
gust,
m/s
humid.,
%
clouds,
%
prec.,
mm/h
press.,
hPa
HPBL,
m
17 may, tue
tue1723:00+12sw512681 0.0 1000287
02:00+11sw613720 0.0 1000436
05:00+10sw613784 0.0 1001500
08:00+13wsw811715 0.0 1001830
11:00+16wsw8105496 0.0 10021718
14:00+19w8104088 0.0 10022552
17:00+18wsw594468 0.0 10031782
20:00+15sw475750 0.0 1004219
18 may, wed
wed1823:00+12ssw46665 0.0 100595
02:00+11ssw48706 0.0 1005134
05:00+10ssw4877100 0.0 1006153
08:00+14sw6966100 0.0 1006581
11:00+17sw684747 0.0 10061732
14:00+18wsw6736100 0.0 10052435
17:00+19sw46305 0.0 10032525
20:00+16sw244884 0.0 100293
19 may, thu
thu1923:00+11ssw387386 0.0 1003630
02:00+10ssw4790100 6.2 1002370
05:00+9wsw61183100 6.7 1001466
08:00+11w811715 0.3 1004875
11:00+15wsw8105675 0.5 10041797
14:00+14wsw81155100 0.1 10061753
17:00+15wsw9115097 0.1 10072045
20:00+12wnw486120 0.0 1009454
20 may, fri
fri2023:00+9ssw33634 0.0 101032
02:00+9ssw41071100 0.0 1009211
05:00+9sw41181100 0.0 1009288
08:00+11sw5773100 0.0 1009604
11:00+12wsw4569100 0.3 1008861
14:00+10wsw1183100 2.6 1006279
17:00+9nne5794100 7.3 1004420
20:00+8nne5894100 3.8 1002530
21 may, sat
sat2123:00+8n5996100 6.9 1001524
02:00+7nnw4894100 0.5 1001487
05:00+8nnw378796 0.5 1001362
08:00+9nw3372100 0.0 1001586
11:00+12nw2257100 0.0 10011187
14:00+13nw2249100 0.1 10001746
17:00+13nnw1148100 0.1 9991430
20:00+12sw1160100 0.0 99832